Wind_Speed
45 43 39 35 39 36 33 29 29 29 29 28 27 29 28 27 28 28 27 30 30 27 22 20 21 20 21 20 19 17 17 16
48 46 43 42 38 38 35 31 29 28 28 26 26 26 29 28 29 30 30 31 30 27 25 24 22 20 18 18 18 18 18 17
51 51 48 41 38 40 37 34 31 29 29 30 28 29 30 33 34 34 34 31 28 26 26 26 24 20 18 17 19 20 19 18
52 54 50 43 43 39 39 37 35 29 29 31 33 33 35 38 37 36 33 30 27 26 25 24 24 23 21 21 20 21 21 19
53 56 53 49 43 43 42 43 39 33 30 30 32 30 29 32 36 35 33 32 31 28 25 24 24 24 24 23 23 23 22 22
54 55 54 49 50 44 42 47 43 41 33 30 30 33 33 36 36 36 36 33 31 28 27 27 27 27 27 26 24 24 24 25
54 56 57 55 56 48 48 45 46 46 43 32 32 33 36 37 36 36 35 33 31 30 30 29 30 29 30 30 28 27 27 27
57 61 61 60 60 55 49 44 48 48 42 42 32 33 36 38 39 38 36 33 31 31 31 31 31 32 32 31 30 31 30 30
59 59 63 63 62 58 55 47 45 46 45 46 41 35 35 36 39 39 36 33 33 34 33 34 33 33 34 34 34 32 30 29
63 61 60 64 62 59 54 49 44 47 45 43 49 44 39 38 37 38 38 36 35 35 35 34 34 34 34 34 33 32 31 31
64 61 58 61 63 59 54 50 48 42 46 48 48 50 48 41 43 40 38 37 36 38 37 37 35 35 31 31 31 32 33 34
63 61 59 59 59 59 54 49 47 47 48 53 60 54 51 55 46 44 42 40 39 40 39 40 40 37 35 33 33 35 37 39
60 61 60 57 59 57 52 49 46 46 51 54 57 49 52 59 53 51 47 46 49 49 51 44 42 42 41 41 42 43 45 45
57 61 60 57 60 60 55 52 46 47 58 60 58 53 51 56 59 60 57 57 57 56 58 53 55 49 47 50 50 49 50 49
56 59 62 57 57 59 55 53 52 56 65 63 60 56 49 46 47 53 61 49 50 53 49 53 52 55 52 50 52 57 57 55
55 56 60 56 47 53 57 56 54 61 69 64 61 58 52 51 49 48 52 55 55 56 56 60 64 53 58 57 59 57 57 57
54 56 56 53 55 56 53 51 55 63 67 61 63 61 57 52 52 50 51 49 51 54 52 50 48 51 55 57 60 57 58 61
54 56 57 57 62 63 59 53 52 54 64 66 65 57 57 57 54 54 56 56 56 52 43 53 55 58 52 64 62 63 59 57
59 55 58 62 63 63 64 61 58 55 54 59 65 60 59 62 60 51 51 56 54 50 52 47 59 55 56 71 64 61 55 58
Wind_Direction
228 232 228 230 224 213 213 212 202 202 203 202 203 203 202 200 193 193 190 178 174 178 186 188 187 184 186 187 193 199 198 202
224 228 227 228 230 219 215 217 211 206 204 205 205 204 204 203 195 192 188 179 178 182 187 186 189 190 194 196 198 202 207 213
223 227 227 222 219 227 218 216 217 207 206 198 199 203 204 202 195 187 186 185 188 187 189 191 193 196 199 203 209 211 216 224
220 229 229 228 223 225 223 216 218 206 209 203 199 202 202 199 192 188 189 191 196 198 198 201 203 209 213 215 220 223 224 231
219 224 228 229 228 229 228 215 214 204 205 207 200 201 203 200 194 192 194 197 201 205 206 212 218 221 224 226 228 231 232 237
222 225 227 226 222 227 219 214 215 211 205 205 205 200 200 201 201 197 198 200 203 209 213 219 224 230 233 234 236 238 239 241
222 220 221 219 222 223 225 218 214 217 212 207 203 207 201 202 206 204 201 203 206 212 218 221 224 228 233 235 237 242 242 245
218 216 216 220 226 227 228 226 220 220 228 208 207 207 208 201 202 207 208 212 213 215 220 224 226 227 230 233 235 238 241 245
214 214 214 220 224 230 230 228 227 219 220 209 210 210 208 207 206 210 210 212 214 217 219 226 231 232 232 234 236 240 244 248
213 214 214 214 221 226 230 227 229 220 220 221 209 210 209 209 213 218 219 216 217 221 223 226 232 238 241 243 244 244 244 245
213 213 215 216 218 222 228 231 229 228 221 218 222 213 212 212 212 214 221 222 222 228 231 232 234 239 243 248 249 251 250 249
212 213 215 218 221 221 223 226 227 229 224 221 226 219 215 213 211 213 211 217 220 226 232 235 236 239 240 241 245 248 250 251
211 212 215 217 221 224 222 223 228 224 222 219 225 229 221 215 216 211 215 218 230 234 236 234 234 237 243 248 247 245 250 256
210 212 213 218 216 222 226 229 233 224 217 221 221 222 227 233 227 217 220 223 231 235 240 239 240 244 251 254 255 256 256 257
207 211 213 216 220 217 221 227 233 218 217 220 219 221 221 225 232 234 229 234 235 238 239 245 246 241 243 250 255 257 259 261
205 211 214 217 216 209 215 223 221 214 214 220 223 221 224 224 226 231 239 240 242 241 244 245 251 250 246 247 254 258 263 266
201 209 214 211 206 206 215 214 213 212 215 219 223 225 225 228 230 232 232 236 242 244 247 251 252 254 252 251 253 257 263 265
202 206 210 209 206 210 214 211 211 213 218 222 225 226 226 231 232 233 236 242 242 243 245 241 249 243 246 253 254 259 258 260
209 205 207 213 211 213 213 215 217 220 223 225 225 228 229 233 235 236 243 244 247 242 236 237 240 249 248 248 255 260 261 261
Height
5743 5748 5754 5757 5763 5765 5769 5772 5774 5778 5781 5784 5789 5793 5797 5802 5805 5810 5815 5820 5824 5829 5833 5838 5842 5845 5848 5851 5854 5857 5859 5861
5731 5737 5744 5750 5756 5761 5764 5768 5771 5774 5777 5781 5786 5790 5794 5799 5802 5806 5811 5818 5822 5826 5830 5834 5839 5842 5845 5848 5851 5854 5856 5858
5721 5728 5735 5742 5750 5754 5758 5762 5766 5769 5772 5775 5779 5783 5788 5793 5797 5801 5807 5813 5819 5823 5826 5830 5835 5838 5841 5844 5846 5849 5852 5853
5711 5718 5727 5734 5741 5748 5752 5756 5761 5763 5767 5769 5772 5776 5781 5787 5793 5798 5804 5809 5814 5818 5822 5826 5830 5833 5836 5839 5842 5844 5846 5848
5698 5706 5717 5726 5735 5739 5743 5748 5753 5757 5760 5764 5768 5774 5781 5787 5792 5795 5799 5803 5808 5813 5818 5822 5825 5829 5832 5834 5837 5839 5841 5843
5687 5697 5706 5716 5723 5731 5735 5740 5745 5750 5755 5758 5762 5767 5774 5779 5785 5788 5792 5797 5802 5807 5812 5816 5820 5823 5825 5829 5831 5833 5836 5838
5676 5686 5696 5704 5710 5718 5725 5731 5738 5743 5748 5752 5756 5761 5767 5773 5780 5784 5787 5792 5797 5802 5806 5810 5813 5816 5819 5821 5824 5827 5829 5831
5662 5671 5682 5692 5699 5710 5717 5723 5729 5735 5741 5747 5751 5755 5761 5765 5772 5779 5781 5786 5792 5796 5799 5803 5806 5809 5811 5814 5817 5820 5822 5824
5646 5658 5670 5681 5689 5698 5707 5714 5720 5726 5734 5737 5744 5749 5754 5760 5764 5771 5775 5779 5784 5788 5792 5795 5799 5802 5804 5807 5809 5812 5814 5817
5632 5644 5655 5668 5677 5686 5696 5705 5711 5718 5724 5729 5733 5741 5747 5753 5760 5764 5769 5771 5776 5780 5784 5787 5790 5794 5797 5799 5803 5805 5807 5809
5621 5633 5645 5655 5665 5677 5686 5695 5702 5710 5715 5720 5726 5731 5740 5744 5749 5754 5761 5764 5769 5772 5775 5779 5781 5785 5788 5791 5795 5797 5799 5801
5611 5623 5634 5644 5654 5664 5674 5683 5691 5696 5703 5709 5715 5721 5727 5734 5740 5745 5750 5754 5758 5762 5766 5770 5773 5776 5779 5782 5786 5788 5790 5792
5600 5613 5623 5634 5644 5653 5663 5672 5680 5687 5694 5697 5702 5709 5715 5722 5730 5735 5740 5744 5749 5753 5756 5759 5763 5767 5770 5773 5776 5778 5780 5782
5592 5602 5613 5623 5633 5643 5652 5660 5668 5675 5681 5685 5693 5699 5706 5712 5717 5720 5725 5731 5736 5740 5745 5749 5753 5757 5760 5762 5764 5766 5768 5770
5582 5592 5602 5611 5620 5631 5640 5649 5656 5663 5669 5675 5682 5689 5696 5701 5705 5709 5714 5716 5722 5726 5730 5736 5740 5744 5747 5748 5751 5753 5755 5758
5575 5583 5591 5601 5610 5620 5628 5636 5643 5651 5657 5665 5672 5678 5684 5689 5693 5697 5701 5705 5711 5715 5718 5725 5726 5730 5733 5736 5738 5741 5743 5745
5567 5575 5583 5592 5601 5610 5618 5626 5633 5640 5646 5653 5658 5666 5672 5678 5681 5685 5690 5694 5699 5703 5707 5711 5714 5715 5719 5722 5725 5728 5730 5732
5558 5567 5574 5582 5591 5598 5607 5616 5623 5630 5636 5642 5648 5656 5662 5665 5670 5674 5677 5681 5686 5692 5694 5697 5701 5703 5702 5708 5711 5715 5717 5719
5548 5556 5564 5572 5580 5587 5595 5604 5612 5618 5624 5631 5637 5643 5649 5654 5658 5663 5668 5671 5675 5679 5681 5683 5688 5691 5693 5695 5697 5701 5704 5707